This demonstration page uses our WeatherBlox Daily Observations layout. Learn more.

Left ArrowRight Arrow

Hourly Observations for June 17, 2021

Temp ( °F °C ) Dew Point ( °F °C ) Humidity (%) Winds ( mph kmh ) Pressure ( in mb ) Visibility ( mi km ) Precip ( " mm )
12:54 am 00:54 Clear 79 26.1 69 20.6 72 72 S 8 13 29.84 1011 10 16 N/A
1:54 am 01:54 Clear 83 28.3 66 18.9 57 57 S 13 20 29.85 1011 10 16 N/A
2:54 am 02:54 Clear 82 27.8 61 16.1 49 49 S 14 22 29.84 1010 10 16 N/A
3:54 am 03:54 Clear 79 26.1 60 15.6 52 52 SSE 12 19 29.85 1011 10 16 N/A
4:54 am 04:54 Clear 77 25 62 16.7 60 60 S 8 13 29.85 1011 10 16 N/A
5:54 am 05:54 Clear 72 22.2 63 17.2 73 73 S 9 15 29.84 1010 10 16 N/A
6:54 am 06:54 Sunny 78 25.6 63 17.2 60 60 S 12 19 29.84 1011 10 16 N/A
7:54 am 07:54 Sunny 81 27.2 64 17.8 57 57 SSE 22 35 29.86 1011 10 16 N/A
8:54 am 08:54 Sunny 84 28.9 65 18.3 53 53 S 16 26 29.87 1011 10 16 N/A
9:54 am 09:54 Sunny 88 31.1 65 18.3 46 46 S 15 24 29.85 1011 10 16 N/A
10:54 am 10:54 Sunny 91 32.8 66 18.9 44 44 S 15 24 29.83 1010 10 16 N/A
11:54 am 11:54 Sunny 93 33.9 67 19.4 42 42 S 17 28 29.82 1010 10 16 N/A
12:54 pm 12:54 Sunny 96 35.6 67 19.4 39 39 S 18 30 29.80 1009 10 16 N/A
1:54 pm 13:54 Sunny 99 37.2 66 18.9 34 34 S 20 31 29.76 1008 10 16 N/A
2:54 pm 14:54 Sunny 101 38.3 64 17.8 30 30 S 22 35 29.73 1007 10 16 N/A
3:54 pm 15:54 Sunny 102 38.9 61 16.1 26 26 SSW 22 35 29.72 1006 10 16 N/A
4:54 pm 16:54 Sunny 103 39.4 60 15.6 24 24 SSW 18 30 29.70 1006 10 16 N/A
5:54 pm 17:54 Sunny 102 38.9 61 16.1 26 26 SSW 15 24 29.69 1005 10 16 N/A
6:54 pm 18:54 Sunny 99 37.2 61 16.1 29 29 SSW 12 19 29.67 1005 10 16 N/A
7:54 pm 19:54 Sunny 92 33.3 64 17.8 40 40 S 9 15 29.67 1005 10 16 N/A
8:54 pm 20:54 Sunny 85 29.4 64 17.8 50 50 S 8 13 29.67 1005 10 16 N/A
9:54 pm 21:54 Clear 83 28.3 59 15 44 44 S 10 17 29.67 1005 10 16 N/A
10:54 pm 22:54 Clear 85 29.4 61 16.1 45 45 NNW 12 19 29.72 1007 10 16 N/A
11:54 pm 23:54 Clear 88 31.1 58 14.4 36 36 W 7 11 29.72 1007 10 16 N/A

Powered by AerisWeather